Lexington Weather

Lexington, Massachusetts, USA

24°F
1/21/2021 9:51am 
  • Lexington Conditions: Clear
  • Temperature: 24.4°F / -4.2°CWarmer 2.1°F than last hour.
  • Dew Point: 13.3°FIncreased 1.6°Fsince last hour.
  • Relative Humidity: 62%Decreased 1.0% since last hour.
  • Wind: Calm, 10-min avg: Calm, gust: 3 mph
  • Barometer: 29.78 in Steady
  • Visibility: 10 miles
  • Snow Today: Trace
  •   

Regional Weather Roundup
for Boston / Norton, MA

        
000
ASUS41 KBOX 210104
RWRBOX

REGIONAL WEATHER ROUNDUP
NATIONAL WEATHER SERVICE BOSTON/NORTON MA
800 PM EST WED JAN 20 2021

NOTE:  "FAIR" INDICATES FEW OR NO CLOUDS BELOW 12,000 FEET WITH NO 
SIGNIFICANT WEATHER AND/OR OBSTRUCTIONS TO VISIBILITY.

MAZALL-210200-
EASTERN MASSACHUSETTS
  
CITY           SKY/WX    TMP DP  RH WIND       PRES   REMARKS
BOSTON         PTCLDY    30  14  51 NW13      29.93R WCI  20          
BEVERLY        CLEAR     30  14  51 NW13G23   29.91R WCI  20          
LAWRENCE       CLEAR     28  15  58 NW7       29.93R WCI  21          
BEDFORD        CLOUDY    30  17  58 W8        29.92R WCI  22          
BLUE HILL      NOT AVBL                                               
NORWOOD        CLEAR     30  14  51 NW10      29.93R WCI  21          
MARSHFIELD     CLOUDY    32  18  55 VRB5G13   29.92R WCI  27          
PLYMOUTH       CLEAR     29  15  56 NW9       29.91R WCI  20          
TAUNTON        CLEAR     31  14  49 NW8G16    29.92R WCI  23          
NEW BEDFORD    CLEAR     31  14  49 NW10G18   29.92R WCI  22          
$$

MAZALL-210200-
CAPE COD AND THE ISLANDS
  
CITY           SKY/WX    TMP DP  RH WIND       PRES   REMARKS
FALMOUTH       CLEAR     30  14  51 NW14G26   29.91R WCI  20          
HYANNIS        CLEAR     32  16  51 NW10      29.88R WCI  24          
CHATHAM        CLOUDY    34  18  52 NW8       29.89R WCI  27          
PROVINCETOWN   PTCLDY    33  16  49 NW20G31   29.90R WCI  21          
NANTUCKET      CLEAR     33  20  58 NW16G25   29.89R WCI  23          
MARTHAS VNYRD  CLEAR     31  18  58 NW20G25   29.91R WCI  19          
$$
 
MAZALL-210200-
CENTRAL AND WESTERN MASSACHUSETTS
  
CITY           SKY/WX    TMP DP  RH WIND       PRES   REMARKS
WORCESTER      CLEAR     24  11  57 NW17      29.88F WCI  11          
FITCHBURG      PTCLDY    26  19  74 NW13      29.93S WCI  15          
ORANGE         CLEAR     24  12  60 NW10      29.95S WCI  14          
SPRINGFIELD    NOT AVBL                                               
WESTFIELD      CLEAR     24   9  52 NW18G29   29.97S WCI  10          
NORTH ADAMS    CLOUDY    21   7  54 W10G22    29.98R WCI  10          
PITTSFIELD     MOCLDY    18   6  59 NW14G23   29.94R WCI   4          
$$
 
RIZALL-210200-
RHODE ISLAND
  
CITY           SKY/WX    TMP DP  RH WIND       PRES   REMARKS
PROVIDENCE     PTCLDY    30  12  47 NW13G21   29.95R WCI  20          
NEWPORT        CLEAR     29  13  51 NW16G24   29.93R WCI  17          
BLOCK ISLAND   CLEAR     29  13  51 NW18G25   29.96R WCI  16          
SMITHFIELD     CLEAR     26  19  74 W6        29.92S WCI  19          
WESTERLY       CLEAR     27   8  44 NW9G20    29.96R WCI  18          
$$
 
CTZALL-210200-
CONNECTICUT
  
CITY           SKY/WX    TMP DP  RH WIND       PRES   REMARKS
BRADLEY INTL   PTCLDY    25   7  46 NW15G22   29.99S WCI  13          
HARTFORD       CLEAR     27   6  41 N13G21    30.01R WCI  16          
BRIDGEPORT     CLEAR     30   7  37 NW7       30.03R WCI  23          
DANBURY        CLEAR     26   4  38 W8        30.02R WCI  18          
GROTON         CLEAR     29   7  39 NW18G28   29.98R WCI  16          
NEW HAVEN      CLEAR     30   8  39 NW13      30.01R WCI  20          
CHESTER        FAIR      27   7  43 NW16G23   29.97S WCI  14          
MERIDEN        CLEAR     27   6  41 NW10      30.01R WCI  17          
WILLIMANTIC    CLEAR     27   9  46 W10G20    29.97S WCI  17          
OXFORD         CLEAR     24   8  50 N14       29.99R WCI  12          
$$

MEZ002-015-021-024-NHZ003-005-008-011-012-014-VTZ005-008-210200-
NORTHERN NEW ENGLAND
  
CITY           SKY/WX    TMP DP  RH WIND       PRES   REMARKS
PORTLAND ME    CLEAR     26  13  57 NW9       29.90R WCI  17          
BANGOR ME      PTCLDY    23   8  52 NW14      29.87R WCI  11          
CONCORD NH     MOCLDY    24  10  55 NW17G26   29.93R WCI  11          
MANCHESTER NH  FLURRIES  27  18  69 N21       29.92R WCI  13          
NASHUA NH      PTCLDY    27  14  58 NW16      29.93S WCI  15          
PORTSMOUTH NH  NOT AVBL                                               
JAFFREY NH     MOCLDY    23  11  60 VRB7      29.88S WCI  15          
KEENE NH       MOCLDY    24   8  50 NW9G18    29.95R WCI  14          
BURLINGTON VT  PTCLDY    15   3  59 NW6       30.01F WCI   6          
MT. WASHINGTON SNOWSHWR  -8  -8 100 W48         N/A  VSB 1/16WCI -42  
$$

NYZ052-076-210200-
EASTERN NEW YORK
  
CITY           SKY/WX    TMP DP  RH WIND       PRES   REMARKS
ALBANY         PTCLDY    18   8  65 W14       30.02F WCI   4          
NEW YORK CITY  PTCLDY    32   9  38 NW15      30.05S WCI  22          
$$
 
ANZALL-210200-
MARINE OBSERVATIONS
  
STATION/POSITION TIME  TEMP    WIND        PRES    VSBY  WAVE
                       AIR SEA DIR/SP/G                  HT/PER
                 (UTC) (F)     (DEG/KT/KT) (MB)    (MI)  (FT/S)
BOSTON BUOY      0050   33     320/ 17/ 23 1013.4R
BUZZARDS BAY     0000          320/ 26/ 27 1014.0R
NANTUCKET SOUND  0040      40  310/ 19/ 23   N/A
MASS BAY-STELLWA 0004   34     330/ 17/ 21 1011.1R  1 7/8  2/ 3
ISLE OF SHOALS   0000   31     310/ 21/ 23 1011.8R
S OF BLOCK IS    0026      48                N/A           7/ 6
$$

......................KEY.........................
  SKY/WX - SKY CONDITION/PRESENT WEATHER
  TMP    - TEMPERATURE IN FAHRENHEIT
  DWPT   - DEWPOINT IN FAHRENHEIT
  RH     - RELATIVE HUMIDITY IN PERCENT
  WIND   - DIRECTION AND SPEED IN MPH
  PRES   - MEAN SEA LEVEL PRESSURE IN INCHES OF HG
  WCI    - WIND CHILL INDEX
  VSB    - VISIBILITY IN MILES
  HX     - HEAT INDEX
  TC     - TEMPERATURE IN CELSIUS
  VRB    - VARIABLE WIND DIRECTION
  N/A    - NOT AVAILABLE
  
      

Other recent Regional Weather Roundups

Thu Jan 21, 9:04am

Thu Jan 21, 7:04am

Thu Jan 21, 6:04am

Thu Jan 21, 5:04am

Thu Jan 21, 4:04am

Thu Jan 21, 3:04am

Thu Jan 21, 2:04am

Thu Jan 21, 1:04am

Thu Jan 21, 12:04am

Wed Jan 20, 11:04pm

Wed Jan 20, 10:05pm

Wed Jan 20, 9:04pm

Wed Jan 20, 7:04pm

Wed Jan 20, 6:05pm

Wed Jan 20, 5:05pm

Wed Jan 20, 1:04pm

Wed Jan 20, 12:04pm

Wed Jan 20, 11:04am

Wed Jan 20, 10:04am

Wed Jan 20, 9:05am

Wed Jan 20, 8:04am

Wed Jan 20, 7:04am

Wed Jan 20, 6:04am

Wed Jan 20, 5:04am

Wed Jan 20, 4:04am

Wed Jan 20, 3:05am

Wed Jan 20, 2:04am

Wed Jan 20, 1:04am

Wed Jan 20, 12:04am

Tue Jan 19, 11:04pm

Tue Jan 19, 10:04pm

Tue Jan 19, 9:04pm

Tue Jan 19, 8:04pm

Tue Jan 19, 7:04pm

Tue Jan 19, 6:05pm

Tue Jan 19, 5:04pm

Tue Jan 19, 4:05pm

Tue Jan 19, 3:04pm

Tue Jan 19, 2:04pm

Tue Jan 19, 1:04pm

Tue Jan 19, 12:05pm

Tue Jan 19, 11:04am

Tue Jan 19, 10:05am

Tue Jan 19, 9:04am

Tue Jan 19, 8:04am

Tue Jan 19, 7:04am

Tue Jan 19, 6:04am

Tue Jan 19, 5:04am

Tue Jan 19, 4:04am

Tue Jan 19, 3:04am

Tue Jan 19, 2:04am

Tue Jan 19, 1:04am

Tue Jan 19, 12:04am

Mon Jan 18, 11:04pm

Mon Jan 18, 10:04pm

Mon Jan 18, 9:04pm

Mon Jan 18, 8:05pm

Mon Jan 18, 7:04pm

Mon Jan 18, 6:05pm

Mon Jan 18, 5:04pm

Mon Jan 18, 4:04pm

Mon Jan 18, 3:04pm

Mon Jan 18, 2:04pm

Mon Jan 18, 1:04pm

Mon Jan 18, 12:04pm

Mon Jan 18, 11:04am

Mon Jan 18, 10:04am

Mon Jan 18, 9:04am

Mon Jan 18, 8:04am

Mon Jan 18, 7:04am

Mon Jan 18, 6:04am

Mon Jan 18, 5:04am

Mon Jan 18, 4:04am

Mon Jan 18, 3:04am

Mon Jan 18, 2:04am

Mon Jan 18, 1:04am

Mon Jan 18, 12:04am

Sun Jan 17, 11:04pm

Sun Jan 17, 10:04pm

Sun Jan 17, 9:04pm

Sun Jan 17, 8:04pm

Sun Jan 17, 7:04pm

Sun Jan 17, 6:04pm

Sun Jan 17, 5:04pm

Sun Jan 17, 4:05pm

Sun Jan 17, 3:04pm

Sun Jan 17, 2:04pm

Sun Jan 17, 1:04pm

Sun Jan 17, 12:04pm

Sun Jan 17, 11:04am

Sun Jan 17, 10:04am

Sun Jan 17, 9:04am

Sun Jan 17, 8:04am

Sun Jan 17, 7:04am

Sun Jan 17, 6:04am

Sun Jan 17, 5:04am

Sun Jan 17, 4:04am

Sun Jan 17, 3:04am

Sun Jan 17, 2:04am

Sun Jan 17, 1:04am

Sun Jan 17, 12:04am

Sat Jan 16, 11:05pm

Sat Jan 16, 10:04pm

Sat Jan 16, 9:04pm

Sat Jan 16, 8:05pm

Sat Jan 16, 7:04pm

Sat Jan 16, 6:04pm

Sat Jan 16, 5:05pm

Sat Jan 16, 4:05pm

Sat Jan 16, 3:05pm

Sat Jan 16, 2:04pm

Sat Jan 16, 1:04pm

Sat Jan 16, 12:04pm

Sat Jan 16, 11:04am

Sat Jan 16, 10:05am

Sat Jan 16, 9:04am

Sat Jan 16, 8:04am

Sat Jan 16, 7:04am

Sat Jan 16, 6:04am

Sat Jan 16, 5:04am

Sat Jan 16, 4:04am

Sat Jan 16, 3:05am

Sat Jan 16, 2:04am

Sat Jan 16, 1:04am

Sat Jan 16, 12:05am

Fri Jan 15, 11:05pm

Fri Jan 15, 10:04pm

Fri Jan 15, 9:04pm

Fri Jan 15, 8:04pm

Fri Jan 15, 7:05pm

Fri Jan 15, 6:05pm

Fri Jan 15, 5:05pm

Fri Jan 15, 4:05pm

Fri Jan 15, 3:04pm

Fri Jan 15, 2:05pm

Fri Jan 15, 1:04pm

Fri Jan 15, 12:05pm

Fri Jan 15, 11:04am

Fri Jan 15, 10:04am

Fri Jan 15, 9:05am

Fri Jan 15, 8:04am

Fri Jan 15, 7:04am

Fri Jan 15, 6:04am

Fri Jan 15, 5:05am

Fri Jan 15, 4:04am

Fri Jan 15, 3:04am

Fri Jan 15, 2:04am

Fri Jan 15, 1:04am

Fri Jan 15, 12:05am

Thu Jan 14, 11:04pm

Thu Jan 14, 10:04pm

Thu Jan 14, 9:04pm

Thu Jan 14, 8:05pm

Thu Jan 14, 7:04pm

Thu Jan 14, 6:04pm

Thu Jan 14, 5:04pm

Thu Jan 14, 4:05pm

Thu Jan 14, 3:04pm

Thu Jan 14, 2:04pm

Thu Jan 14, 1:04pm

Thu Jan 14, 12:05pm

Thu Jan 14, 11:05am

Thu Jan 14, 10:04am

Thu Jan 14, 9:04am

Thu Jan 14, 8:04am

Thu Jan 14, 7:04am

Thu Jan 14, 6:04am

Thu Jan 14, 5:04am

Thu Jan 14, 4:04am

Thu Jan 14, 3:04am

Thu Jan 14, 2:04am

Thu Jan 14, 1:04am

Thu Jan 14, 12:04am

Wed Jan 13, 11:04pm

Wed Jan 13, 10:04pm

Wed Jan 13, 9:04pm

Wed Jan 13, 8:05pm

Wed Jan 13, 7:04pm

Wed Jan 13, 6:04pm

Wed Jan 13, 5:04pm

Wed Jan 13, 4:04pm

Wed Jan 13, 3:05pm

Wed Jan 13, 2:04pm

Wed Jan 13, 1:04pm

Wed Jan 13, 12:04pm

Wed Jan 13, 11:04am

Wed Jan 13, 10:04am

Wed Jan 13, 9:05am

Wed Jan 13, 8:04am

Wed Jan 13, 7:04am

Wed Jan 13, 6:04am

Wed Jan 13, 5:04am

Wed Jan 13, 4:04am

Wed Jan 13, 3:04am

Wed Jan 13, 2:04am

Wed Jan 13, 1:04am

Wed Jan 13, 12:05am

Tue Jan 12, 11:04pm

Tue Jan 12, 10:04pm

Tue Jan 12, 9:04pm

Tue Jan 12, 8:05pm

Tue Jan 12, 7:04pm

Meta data:

ID: dba59f39-ce53-4916-8655-29fb8238078d
Link: https://api.weather.gov/products/dba59f39-ce53-4916-8655-29fb8238078d